Wind_Speed
8 9 9 10 12 14 13 11 12 12 12 13 13 12 12 11 10 7 5 4 4 6 7 5 5 6 7 8 8 8 7 5 3 2 3 4 3 2 2 2 3 3 5 8 8 7 8 10 9 6 4 4 2 2 0 4 6 4 5 7 10 11 11
9 10 10 11 13 14 13 11 12 13 13 14 15 15 13 11 11 9 7 7 6 6 7 6 5 4 7 8 8 9 9 6 3 2 1 3 3 2 2 1 2 3 5 7 8 9 9 9 12 10 9 7 6 6 2 3 4 4 5 8 10 11 10
10 11 11 11 13 14 14 12 13 15 16 16 16 17 16 14 14 12 9 9 9 8 8 8 8 8 8 8 8 11 9 4 3 2 0 2 4 4 2 1 2 3 5 7 9 12 11 9 10 11 11 10 9 8 4 3 3 3 5 8 9 9 10
11 11 12 12 13 14 15 15 15 16 17 17 17 18 19 17 16 15 12 10 9 9 10 10 10 10 9 6 7 10 7 3 3 2 1 2 3 4 4 3 3 4 5 5 7 11 13 12 11 13 15 12 9 9 7 3 1 2 4 7 7 8 11
14 14 15 14 14 14 16 16 17 18 18 18 18 20 21 19 17 17 15 12 9 8 9 9 9 9 9 7 7 8 7 3 2 2 1 2 2 4 5 5 4 5 5 5 6 8 12 13 12 16 18 13 10 9 9 7 3 0 3 5 6 8 11
17 18 18 18 16 16 16 16 17 18 18 19 20 21 22 22 18 17 17 15 10 8 7 8 8 8 8 7 5 7 7 5 3 2 2 1 1 2 4 4 5 6 5 5 5 7 10 12 13 16 17 13 12 12 11 8 6 3 1 2 4 7 9
19 20 20 20 19 18 18 19 19 18 18 18 20 22 23 23 20 18 18 16 11 8 7 7 7 6 6 5 4 5 6 5 4 4 3 3 2 3 3 3 4 6 6 5 4 5 8 10 13 16 17 14 13 12 12 11 8 6 4 2 1 6 7
20 20 20 20 20 19 19 20 21 21 21 18 19 22 24 24 22 19 18 17 12 8 8 8 7 5 6 6 5 5 6 6 5 6 6 5 4 3 3 3 3 5 6 6 4 4 5 7 10 15 17 16 15 14 12 12 11 8 6 4 1 3 6
20 20 20 21 21 21 21 21 21 22 22 19 17 19 22 23 22 19 18 18 13 8 8 9 8 7 7 7 6 5 7 8 6 7 8 6 4 4 4 3 3 4 6 6 4 4 4 5 9 14 15 15 16 18 15 14 13 10 8 6 3 2 3
18 19 19 19 20 21 21 22 22 22 22 21 19 18 19 21 22 21 19 18 14 9 9 9 9 9 9 8 8 7 6 8 7 7 8 6 5 5 6 5 5 5 6 6 3 2 4 7 11 14 15 13 13 16 17 17 16 14 11 8 5 5 2
17 18 19 18 18 19 20 20 22 22 22 22 21 19 18 18 20 21 20 19 15 11 10 10 9 10 10 10 10 9 6 8 9 7 6 6 5 7 7 6 6 5 6 5 2 0 3 7 12 15 15 14 15 14 13 15 17 15 12 9 6 6 4
18 18 19 18 18 18 19 19 21 22 21 21 21 21 20 17 17 19 20 20 16 12 11 11 9 9 10 10 11 10 8 10 10 7 7 6 5 7 9 8 6 5 5 5 3 3 3 5 11 15 14 15 18 16 14 13 15 14 12 10 7 4 3
17 17 17 18 18 18 18 19 20 20 21 22 22 22 22 18 17 18 19 19 16 12 11 12 10 11 11 11 9 9 10 10 10 8 8 6 4 7 10 9 7 6 5 5 5 5 4 4 8 12 13 15 17 16 15 15 14 12 11 11 9 5 3
15 14 14 15 16 16 17 18 19 20 20 22 23 23 22 18 16 16 17 18 15 12 11 12 12 13 13 12 9 7 10 11 10 10 9 7 5 7 10 10 8 7 6 7 6 5 5 5 6 9 12 14 16 15 15 16 14 12 12 11 9 6 4
16 14 12 12 13 14 15 16 17 18 18 19 21 22 21 19 17 17 16 17 14 11 11 13 14 14 14 14 12 8 8 10 11 12 12 10 7 7 10 10 9 8 7 9 9 7 7 7 5 7 9 13 15 15 15 15 15 14 13 12 11 7 4
19 17 15 14 13 14 14 15 15 16 16 17 18 19 19 18 18 16 16 16 14 11 12 15 16 16 15 14 13 9 7 7 8 12 13 12 10 10 10 11 12 10 8 10 12 10 8 7 6 6 7 10 12 14 15 14 13 13 12 12 11 8 5
22 20 18 17 15 14 14 14 15 15 15 16 17 18 18 18 16 15 15 15 14 12 14 15 16 17 16 15 13 9 7 6 5 9 12 12 11 10 9 10 12 11 8 10 13 12 10 9 7 6 7 7 8 10 11 11 10 10 10 11 11 8 6
26 24 23 20 18 16 15 14 15 16 16 16 16 17 18 17 16 15 16 15 14 14 16 17 17 17 17 17 13 10 9 7 5 7 11 12 11 10 10 11 10 8 8 11 12 11 11 11 9 7 7 6 5 6 9 9 9 7 6 8 9 9 9
27 26 25 24 22 20 17 15 14 15 15 16 16 16 17 18 18 17 17 17 15 14 16 18 18 17 17 18 16 13 11 9 7 6 9 12 12 12 12 12 10 8 8 11 12 11 10 10 11 9 9 8 6 7 9 10 10 8 6 8 8 8 9
27 26 25 24 23 23 21 18 16 15 15 15 16 16 18 19 19 17 17 19 18 15 16 18 18 17 17 19 18 14 12 9 8 7 8 10 11 12 12 11 10 8 8 11 13 12 9 8 10 11 11 10 9 9 10 11 11 9 8 11 11 8 8
26 27 26 23 22 22 23 22 20 17 16 16 17 18 19 20 20 19 18 19 19 17 16 17 17 17 18 19 19 16 13 10 9 8 9 9 9 10 9 9 8 7 8 10 10 11 10 8 8 10 12 11 11 11 11 11 11 10 10 12 13 10 8
26 27 26 24 23 22 22 23 22 20 19 17 17 18 20 21 22 22 20 20 20 19 17 17 17 17 18 19 18 17 15 11 9 9 9 10 10 9 8 8 7 7 8 9 10 10 11 9 7 7 10 13 13 12 12 13 12 12 12 13 14 12 9
24 25 25 24 23 23 23 23 22 21 21 20 18 17 18 18 20 22 23 22 21 20 19 19 19 18 18 18 17 17 16 13 10 9 9 10 10 9 8 7 7 7 7 9 10 10 11 12 9 7 7 11 14 14 14 14 13 12 13 13 14 12 9
24 25 26 25 24 24 24 23 23 22 21 20 20 19 18 17 17 20 22 22 22 21 20 19 20 20 19 18 17 17 16 13 10 10 9 9 9 9 8 7 7 7 8 8 10 11 12 13 12 10 8 8 11 13 14 14 13 12 13 13 13 11 8
22 24 26 26 25 25 25 24 24 24 23 23 21 20 19 18 16 17 18 19 21 22 20 16 18 20 19 18 18 17 16 14 12 11 10 10 10 10 8 7 5 6 8 9 10 11 12 13 14 14 12 10 9 12 13 13 12 10 10 11 11 10 8
21 22 23 23 23 24 25 25 25 25 25 25 24 23 21 19 16 15 15 14 16 21 21 17 17 20 20 18 18 18 17 15 13 11 11 11 11 11 8 6 3 3 6 9 10 11 12 13 13 14 15 14 13 12 12 12 11 10 10 11 11 10 9
23 23 23 22 22 22 24 26 26 27 26 24 25 26 24 21 17 13 13 13 14 18 21 19 18 20 21 19 19 18 17 15 13 12 12 12 12 11 8 5 3 3 4 6 9 10 11 11 13 14 15 16 16 15 15 14 13 12 12 13 13 12 11
27 24 21 21 21 21 23 25 26 27 26 22 23 27 25 22 18 14 11 12 14 17 20 19 18 20 21 20 19 18 17 16 14 13 13 13 12 11 9 7 6 4 3 4 6 7 9 10 11 13 15 16 16 16 16 16 15 14 13 12 12 11 11
26 22 20 21 21 20 22 24 25 27 24 20 22 26 25 22 18 15 13 10 10 13 17 19 19 20 20 20 19 18 18 17 16 14 14 14 12 11 9 8 8 7 4 3 4 5 7 8 9 10 12 14 16 16 16 16 16 15 15 13 11 10 10
24 22 22 22 22 22 22 23 25 24 21 19 21 24 25 23 19 17 16 15 11 9 11 17 20 19 19 20 20 19 18 18 17 15 15 14 13 11 10 10 9 8 6 4 4 5 6 6 7 7 8 10 12 13 14 15 16 16 16 15 13 11 11
24 23 22 22 23 24 23 23 24 22 17 17 20 23 25 25 22 19 17 16 16 13 9 10 16 19 18 19 20 20 20 19 17 16 15 15 15 12 11 11 10 9 7 6 6 6 6 6 5 5 6 7 9 10 11 13 14 16 17 16 15 13 12
23 22 22 22 23 25 24 22 23 21 16 15 18 20 24 26 24 21 18 16 16 14 12 12 11 13 17 19 21 21 20 20 19 17 15 16 16 14 12 12 11 9 8 7 7 6 5 6 5 4 4 5 7 9 9 10 12 13 15 16 16 16 15
21 21 23 23 24 25 24 22 23 21 17 15 16 18 21 23 22 21 20 20 18 14 12 15 16 12 12 20 24 22 21 21 20 17 16 16 17 16 14 12 10 9 8 7 7 6 5 6 5 4 3 4 5 6 7 9 10 12 14 15 16 17 17
20 22 23 23 23 22 21 21 22 22 19 16 15 16 19 20 18 17 19 22 23 19 16 16 17 17 15 15 23 24 22 22 21 18 16 16 17 16 14 10 8 7 7 7 7 6 5 6 6 4 3 3 4 5 6 7 9 11 12 13 15 16 17
18 20 20 20 19 18 18 19 20 20 19 18 17 17 19 19 17 15 17 20 23 24 22 19 14 15 21 18 14 22 22 21 21 19 17 16 17 16 14 8 5 6 6 5 6 6 5 6 6 5 4 4 5 5 4 5 8 9 10 12 13 14 15
16 16 16 16 16 16 16 17 19 20 20 21 20 18 19 20 18 16 16 18 21 24 24 22 17 12 17 23 14 14 22 24 22 21 19 17 16 16 13 8 5 6 5 2 3 4 5 5 5 5 5 5 5 5 4 4 7 8 9 9 10 12 12
14 13 14 14 16 17 17 17 18 20 21 23 23 21 20 21 21 20 19 20 22 24 24 24 23 16 12 17 19 11 15 24 24 22 20 19 17 16 14 9 7 7 5 2 1 2 3 4 5 5 6 6 6 6 5 5 7 8 9 8 8 9 10
Wind_Direction
301 306 311 317 324 321 315 317 323 328 329 329 332 333 338 345 341 325 302 295 294 293 293 293 309 322 327 333 341 345 350 342 311 275 266 284 285 269 275 264 235 224 208 219 235 229 198 176 168 173 178 163 150 185 326 359 346 355 21 5 355 354 355
285 290 297 306 312 309 304 310 322 325 322 322 324 324 333 345 343 332 305 296 297 285 279 280 289 301 309 315 320 327 341 352 326 280 278 302 298 283 282 261 230 200 189 215 233 232 222 191 174 178 183 178 169 175 189 342 329 334 360 356 351 354 2
271 274 281 291 300 300 300 304 313 317 316 319 322 323 329 335 339 339 323 305 302 294 283 276 274 281 297 307 309 313 323 346 329 290 98 319 299 296 295 251 226 212 204 217 219 217 222 215 197 187 184 186 177 173 201 300 314 342 359 354 354 3 10
266 262 265 275 286 292 296 299 304 308 309 313 317 320 324 328 332 335 330 319 309 299 288 276 271 273 282 289 298 305 306 321 327 305 17 345 293 285 282 259 236 229 230 237 233 225 221 221 208 178 173 184 184 183 196 210 284 343 356 356 358 6 6
274 265 262 269 276 285 293 298 301 303 304 308 311 314 316 319 325 329 327 327 320 301 284 276 277 275 275 274 278 287 283 278 298 291 323 347 292 273 272 266 248 239 242 243 246 240 232 235 217 177 170 179 178 177 186 185 180 305 351 350 355 359 3
273 269 267 268 269 275 282 287 291 296 301 304 305 308 310 311 315 321 321 322 320 304 289 288 291 284 276 270 266 271 266 252 239 245 286 308 218 241 263 273 255 238 236 233 238 238 231 235 222 186 177 189 191 177 178 194 207 199 229 320 347 358 6
274 274 275 275 276 277 279 280 283 287 291 297 300 301 303 305 308 312 314 313 309 302 296 297 298 291 279 272 274 275 258 236 224 227 251 257 211 195 236 273 254 236 234 227 233 238 224 226 222 196 179 185 193 182 179 198 219 227 231 227 348 360 7
285 282 279 280 284 286 284 282 282 282 284 289 296 295 297 301 302 305 307 303 299 299 294 284 281 291 291 284 295 279 236 218 218 220 227 242 234 213 228 264 264 244 244 239 230 231 226 227 223 203 186 180 178 178 192 204 212 231 246 228 221 357 8
289 284 279 279 283 286 286 283 280 280 280 279 283 288 293 297 298 300 301 295 290 289 289 277 265 277 284 281 298 282 224 208 216 221 221 228 230 220 221 250 283 276 257 250 241 232 224 216 217 210 204 198 184 180 192 205 207 213 224 232 262 309 10
291 287 287 287 286 286 287 285 282 280 276 270 271 281 287 288 292 297 297 290 282 275 280 274 263 271 277 279 291 287 234 207 209 219 216 214 219 221 223 238 271 285 260 244 245 251 220 198 208 213 209 216 215 197 193 201 210 216 218 227 265 293 327
304 304 306 304 295 288 288 290 288 283 277 273 274 279 278 277 283 292 295 288 275 265 270 269 266 272 278 285 287 277 240 203 204 211 202 206 223 226 227 235 254 270 250 229 189 163 208 191 204 213 208 213 226 225 219 213 210 218 229 230 248 285 304
314 311 310 308 299 290 289 292 291 284 278 276 274 273 272 273 279 286 292 289 271 257 263 264 271 281 284 296 288 262 227 196 201 213 203 210 234 227 226 229 233 250 246 224 164 127 144 183 204 214 212 209 214 226 241 233 215 217 231 236 239 259 289
319 310 308 306 301 295 290 289 289 285 279 276 274 272 271 277 283 282 285 285 267 250 256 261 271 282 288 302 296 252 224 204 206 219 217 216 221 219 224 220 213 232 245 226 190 155 145 166 200 214 218 212 210 219 233 235 231 229 223 230 247 246 234
333 320 310 305 303 298 291 288 289 287 282 279 278 277 275 276 283 278 274 275 263 245 253 263 268 277 285 300 303 256 233 225 216 217 222 220 206 213 222 218 212 220 225 219 207 188 179 179 194 212 220 219 214 218 226 230 237 234 212 213 239 245 222
348 341 328 315 308 301 294 293 292 289 288 287 283 280 276 274 279 275 264 264 260 246 255 264 265 274 284 296 303 281 245 235 221 216 222 226 226 228 224 221 222 215 206 212 218 213 197 191 201 214 219 224 223 224 228 231 237 235 218 209 218 220 208
0 354 348 337 326 315 305 301 298 292 292 293 289 284 279 276 277 273 259 257 258 249 255 262 263 271 284 295 301 289 256 238 225 219 222 228 235 233 223 223 230 232 224 217 218 219 207 194 204 215 217 223 225 227 231 232 235 236 228 217 213 211 211
14 7 0 351 340 330 318 307 301 296 294 293 293 293 288 279 274 270 258 254 258 255 254 258 262 270 283 294 298 286 262 246 230 222 222 224 227 225 224 230 237 243 237 218 213 216 213 205 203 206 213 221 221 223 224 220 226 238 235 222 213 214 227
19 16 12 5 355 346 333 320 310 303 298 295 292 291 288 279 272 269 262 254 256 257 255 255 261 270 279 287 294 296 283 264 241 225 220 219 219 222 232 242 247 247 223 206 207 215 217 213 210 208 207 206 196 202 205 200 206 223 230 216 204 207 220
15 13 13 12 7 360 350 336 323 311 303 297 290 285 283 279 272 270 266 256 252 254 253 252 258 267 274 278 287 299 295 271 247 232 224 222 224 229 237 244 249 250 225 207 208 217 222 218 217 218 207 195 186 190 192 192 199 208 207 201 195 199 211
10 7 7 8 8 5 359 350 336 322 310 298 290 283 280 278 274 272 267 256 248 248 250 248 252 260 266 271 280 294 295 273 248 235 229 226 229 233 238 242 242 240 229 217 214 217 225 221 215 214 207 200 198 195 192 192 200 205 201 197 198 202 209
3 2 360 359 2 3 2 358 349 336 321 305 292 285 279 276 274 272 267 255 244 240 244 245 246 253 259 264 273 285 291 278 252 239 236 234 234 233 234 235 236 234 225 221 219 218 222 223 213 210 210 208 204 200 200 200 202 205 204 201 204 208 213
358 359 357 353 356 359 359 359 356 349 339 325 308 293 285 281 277 272 265 254 241 234 235 239 242 250 256 261 268 277 285 282 261 243 239 238 239 242 243 240 237 233 227 221 218 215 217 221 216 211 212 209 207 207 206 206 208 211 210 207 206 209 215
359 359 357 352 351 356 357 356 357 355 350 344 336 321 307 296 285 276 269 260 246 232 231 238 242 247 254 258 263 271 281 284 269 251 243 239 240 244 247 247 241 235 231 226 221 216 214 216 215 212 207 202 204 208 207 206 210 214 216 213 209 212 219
1 360 0 356 351 354 357 358 359 359 357 353 350 345 335 318 297 285 280 273 258 239 231 240 245 246 251 256 260 268 278 282 274 261 253 247 247 249 251 255 254 243 232 226 225 221 215 213 213 213 207 194 194 201 205 208 210 211 214 215 214 221 232
356 354 358 359 355 354 358 1 1 1 1 359 355 352 348 338 317 297 286 277 262 242 228 234 248 249 250 254 259 269 277 279 276 268 259 254 254 259 260 257 255 245 233 227 226 224 220 218 217 216 214 207 196 197 202 210 215 217 218 220 222 231 240
351 347 349 353 353 353 356 358 357 356 357 359 358 356 353 349 336 313 295 281 260 241 227 226 239 247 251 256 261 269 277 279 278 271 260 256 256 258 256 244 233 240 237 230 227 225 222 221 222 221 221 219 216 214 212 217 226 231 231 232 237 246 250
346 342 338 340 344 347 349 350 350 350 351 354 356 356 354 351 349 337 311 287 264 250 242 233 228 235 248 258 262 269 276 278 278 271 259 255 256 258 255 246 251 268 248 236 232 228 224 223 224 225 226 226 226 228 228 228 233 236 237 238 241 250 251
342 341 336 337 340 345 347 348 348 347 347 351 354 354 352 348 347 347 325 288 264 260 259 250 233 229 239 252 261 267 273 277 277 270 258 253 255 259 261 261 265 274 260 236 233 231 225 223 225 227 230 232 234 236 237 235 234 235 236 237 239 243 241
341 343 344 344 345 348 350 351 349 346 344 350 355 354 354 350 346 345 342 319 280 266 265 259 244 231 230 241 254 263 268 273 277 270 256 252 254 257 259 264 268 270 267 243 231 231 226 220 219 222 228 234 237 240 241 239 236 232 230 232 234 234 234
339 340 345 350 351 351 350 350 350 348 346 352 359 360 359 357 352 346 344 342 334 310 278 262 252 241 232 233 241 252 261 268 275 274 260 250 252 257 257 262 271 271 268 261 245 234 228 220 212 209 217 228 233 235 237 237 234 230 227 229 232 233 235
335 333 339 348 352 353 351 350 352 356 356 354 359 4 4 2 359 352 343 339 340 342 331 289 264 251 242 237 236 242 253 263 270 272 264 251 248 255 260 261 268 272 267 259 250 238 232 233 221 200 198 212 220 223 225 227 229 229 227 227 229 231 234
331 330 334 341 346 349 351 350 353 0 4 356 357 4 3 1 1 358 351 343 336 337 350 348 311 267 246 241 241 239 241 252 262 265 261 254 247 249 256 258 259 261 255 244 241 239 236 240 237 211 195 198 205 212 214 216 221 225 227 228 229 231 234
329 332 335 335 336 342 348 350 352 358 2 355 353 357 357 356 358 1 1 356 345 335 342 354 349 326 270 244 240 240 237 240 252 260 259 254 249 245 248 253 252 245 235 229 233 239 239 241 243 226 204 191 186 195 206 212 215 217 221 226 229 232 235
326 328 333 334 333 336 345 353 357 359 2 1 356 353 353 354 356 2 9 7 0 355 353 351 348 342 320 265 233 232 239 236 239 253 259 254 250 247 244 248 250 236 221 218 227 238 243 243 242 227 202 179 165 168 183 201 208 211 214 219 226 231 233
328 328 332 338 339 336 339 349 355 357 0 5 6 360 356 357 357 358 5 8 5 5 4 356 343 334 333 319 247 223 235 239 233 240 252 252 248 245 241 243 241 221 209 209 220 236 246 246 241 224 202 183 167 156 151 177 194 202 206 209 216 223 227
337 334 337 343 346 341 337 340 347 351 353 357 2 2 360 1 1 356 355 358 2 4 5 3 356 340 333 335 316 238 232 237 229 226 238 248 250 245 239 234 222 206 195 191 219 233 241 247 244 224 207 193 172 150 132 158 179 181 184 193 201 207 213
342 340 342 342 343 343 343 342 343 346 347 349 353 357 357 358 359 358 353 350 353 357 1 4 2 353 337 335 335 307 248 238 227 218 225 236 243 243 235 223 212 206 198 192 247 227 226 236 239 226 213 201 186 165 150 163 173 165 159 165 176 186 193
Height
1567 1567 1566 1565 1565 1564 1563 1563 1562 1561 1560 1559 1559 1558 1557 1556 1555 1554 1553 1552 1552 1551 1551 1550 1550 1549 1549 1548 1547 1547 1546 1545 1544 1544 1543 1542 1542 1542 1541 1540 1539 1539 1539 1539 1540 1540 1540 1540 1541 1542 1542 1542 1541 1540 1540 1540 1539 1538 1537 1537 1536 1535 1534
1566 1565 1565 1564 1563 1563 1562 1562 1561 1560 1560 1559 1558 1558 1557 1556 1555 1553 1552 1551 1551 1550 1549 1549 1549 1548 1548 1547 1546 1546 1545 1545 1544 1543 1543 1542 1542 1541 1541 1540 1540 1539 1539 1539 1539 1539 1539 1539 1540 1541 1541 1542 1541 1540 1540 1540 1539 1539 1538 1537 1536 1535 1535
1564 1563 1563 1562 1562 1561 1561 1560 1560 1559 1559 1558 1558 1557 1556 1556 1555 1553 1552 1551 1550 1549 1548 1547 1547 1546 1546 1546 1545 1544 1544 1544 1543 1543 1542 1542 1541 1541 1541 1541 1540 1540 1539 1539 1539 1539 1539 1539 1539 1540 1541 1541 1541 1541 1541 1541 1540 1539 1539 1538 1537 1536 1536
1563 1562 1560 1559 1559 1559 1558 1558 1558 1558 1558 1557 1557 1556 1555 1555 1554 1553 1552 1551 1550 1548 1547 1546 1545 1545 1544 1544 1543 1543 1543 1543 1542 1542 1542 1542 1541 1541 1541 1540 1540 1540 1539 1539 1538 1538 1538 1538 1538 1540 1541 1541 1541 1541 1541 1541 1540 1540 1539 1539 1538 1537 1536
1561 1560 1558 1557 1556 1556 1556 1556 1556 1556 1556 1556 1556 1555 1555 1554 1553 1552 1551 1550 1549 1548 1547 1546 1544 1544 1543 1542 1542 1542 1542 1542 1542 1541 1541 1541 1541 1541 1541 1540 1540 1540 1539 1539 1539 1538 1538 1538 1538 1539 1540 1541 1541 1541 1541 1541 1540 1540 1540 1540 1539 1538 1537
1560 1558 1557 1555 1555 1554 1554 1554 1554 1554 1554 1554 1554 1554 1553 1553 1552 1551 1550 1549 1549 1548 1547 1546 1545 1543 1542 1541 1541 1541 1541 1541 1541 1541 1541 1540 1540 1540 1540 1540 1540 1539 1539 1539 1538 1538 1538 1538 1538 1539 1540 1540 1540 1540 1541 1541 1540 1540 1540 1540 1539 1539 1538
1558 1557 1556 1555 1555 1554 1553 1553 1552 1552 1552 1552 1552 1552 1552 1551 1551 1550 1549 1548 1548 1547 1546 1546 1545 1543 1542 1541 1540 1540 1540 1540 1540 1540 1540 1540 1539 1539 1539 1539 1539 1539 1539 1538 1538 1537 1537 1538 1538 1538 1539 1540 1540 1540 1540 1541 1541 1540 1540 1540 1540 1539 1538
1557 1557 1555 1554 1554 1554 1553 1552 1551 1551 1550 1550 1551 1551 1550 1550 1550 1549 1548 1547 1547 1546 1546 1545 1545 1544 1543 1541 1540 1539 1539 1539 1539 1539 1539 1539 1539 1539 1538 1538 1538 1538 1538 1538 1537 1537 1537 1537 1537 1538 1538 1538 1540 1540 1540 1540 1540 1540 1540 1539 1539 1539 1538
1556 1555 1553 1552 1552 1551 1551 1550 1549 1549 1548 1548 1550 1550 1550 1549 1548 1548 1547 1546 1545 1545 1545 1544 1544 1543 1543 1542 1540 1539 1538 1538 1538 1538 1538 1538 1538 1538 1538 1538 1538 1538 1537 1537 1537 1536 1536 1536 1537 1537 1537 1537 1537 1538 1539 1540 1540 1540 1539 1539 1539 1538 1538
1553 1552 1550 1550 1549 1548 1548 1547 1547 1547 1545 1545 1547 1548 1548 1547 1547 1546 1546 1545 1544 1544 1543 1543 1543 1542 1542 1541 1540 1539 1538 1537 1537 1537 1537 1538 1538 1537 1537 1537 1537 1537 1537 1536 1536 1536 1536 1536 1536 1537 1537 1537 1536 1536 1537 1538 1538 1538 1538 1538 1539 1538 1538
1550 1549 1548 1547 1546 1545 1545 1545 1544 1544 1543 1542 1543 1544 1544 1543 1544 1544 1544 1544 1543 1542 1542 1542 1541 1541 1541 1540 1539 1538 1537 1536 1536 1536 1536 1537 1537 1537 1536 1536 1536 1536 1536 1536 1535 1535 1535 1535 1536 1536 1537 1537 1536 1535 1536 1536 1537 1537 1538 1538 1538 1538 1538
1547 1546 1545 1545 1544 1542 1542 1542 1541 1541 1540 1540 1540 1540 1540 1540 1541 1542 1542 1542 1542 1541 1541 1541 1540 1540 1540 1539 1538 1537 1536 1536 1535 1535 1535 1535 1535 1535 1535 1536 1535 1535 1535 1535 1535 1535 1535 1535 1535 1536 1536 1537 1537 1536 1536 1536 1536 1536 1537 1537 1538 1538 1538
1545 1544 1543 1542 1541 1540 1540 1539 1538 1538 1537 1537 1537 1537 1538 1538 1538 1539 1540 1541 1541 1540 1540 1540 1539 1539 1538 1538 1536 1535 1535 1535 1534 1534 1534 1534 1534 1534 1534 1534 1535 1535 1534 1535 1534 1534 1534 1534 1535 1535 1536 1536 1536 1537 1536 1536 1536 1536 1537 1537 1538 1538 1538
1543 1542 1541 1540 1539 1538 1537 1536 1536 1536 1535 1535 1535 1535 1536 1536 1536 1536 1537 1538 1538 1539 1539 1538 1538 1538 1537 1537 1535 1534 1534 1534 1533 1533 1533 1533 1533 1533 1533 1533 1534 1534 1534 1534 1534 1534 1534 1534 1534 1535 1535 1535 1536 1536 1536 1536 1536 1536 1536 1537 1538 1538 1538
1542 1541 1540 1539 1538 1536 1535 1534 1533 1533 1533 1533 1533 1533 1533 1534 1534 1533 1533 1534 1535 1536 1536 1536 1536 1536 1536 1535 1534 1533 1533 1532 1532 1532 1531 1532 1532 1532 1532 1532 1532 1533 1533 1533 1533 1533 1533 1533 1534 1534 1534 1535 1535 1535 1535 1536 1536 1536 1536 1536 1537 1537 1538
1541 1540 1539 1537 1536 1534 1533 1532 1531 1531 1531 1531 1531 1531 1531 1531 1531 1531 1531 1531 1532 1533 1533 1534 1534 1535 1535 1534 1533 1532 1531 1530 1530 1530 1530 1530 1530 1530 1530 1530 1531 1531 1531 1531 1531 1532 1532 1532 1533 1533 1534 1534 1534 1534 1535 1535 1535 1535 1535 1535 1536 1537 1537
1542 1540 1538 1537 1535 1534 1532 1531 1530 1530 1529 1529 1529 1528 1528 1528 1528 1528 1528 1529 1529 1530 1531 1531 1532 1533 1533 1533 1532 1531 1530 1529 1528 1528 1528 1529 1529 1529 1529 1529 1529 1530 1530 1530 1530 1531 1531 1532 1532 1532 1533 1533 1533 1534 1534 1534 1535 1535 1535 1535 1535 1536 1537
1543 1541 1539 1537 1535 1534 1532 1531 1530 1529 1528 1527 1527 1526 1526 1526 1525 1525 1526 1526 1527 1527 1528 1528 1529 1531 1531 1532 1531 1530 1529 1528 1527 1526 1527 1527 1527 1528 1528 1528 1528 1528 1528 1529 1529 1529 1530 1531 1531 1531 1532 1532 1533 1533 1533 1534 1534 1535 1535 1535 1535 1535 1536
1545 1542 1540 1538 1536 1534 1532 1531 1529 1528 1526 1525 1525 1524 1524 1523 1523 1523 1524 1524 1525 1525 1526 1526 1526 1528 1529 1530 1530 1529 1528 1527 1526 1525 1525 1525 1526 1526 1526 1526 1527 1527 1527 1527 1528 1528 1528 1529 1530 1530 1531 1532 1532 1532 1533 1533 1534 1534 1535 1535 1535 1535 1535
1545 1543 1541 1539 1537 1535 1533 1531 1529 1527 1526 1524 1523 1523 1522 1522 1521 1521 1522 1522 1523 1523 1524 1524 1524 1525 1526 1527 1528 1528 1527 1526 1525 1524 1523 1524 1524 1525 1525 1525 1525 1525 1526 1526 1526 1526 1527 1528 1528 1529 1530 1530 1531 1531 1532 1533 1533 1534 1534 1534 1534 1534 1535
1546 1544 1542 1540 1538 1535 1533 1531 1529 1527 1525 1523 1522 1521 1520 1519 1519 1519 1519 1520 1521 1521 1521 1522 1522 1522 1523 1524 1526 1526 1526 1525 1524 1522 1522 1522 1523 1523 1523 1523 1524 1524 1524 1524 1525 1525 1526 1526 1527 1528 1528 1529 1530 1530 1531 1532 1532 1533 1534 1534 1534 1534 1535
1546 1544 1542 1540 1538 1535 1533 1531 1529 1527 1525 1522 1521 1519 1517 1517 1516 1516 1516 1517 1517 1519 1520 1520 1520 1520 1521 1521 1523 1524 1525 1524 1523 1521 1521 1521 1521 1521 1522 1522 1522 1522 1523 1523 1523 1523 1524 1525 1525 1526 1527 1528 1528 1529 1530 1531 1531 1532 1533 1533 1534 1534 1534
1547 1545 1543 1540 1538 1535 1533 1531 1528 1526 1524 1521 1520 1518 1516 1516 1515 1514 1513 1513 1514 1516 1517 1518 1518 1518 1519 1519 1521 1522 1523 1523 1521 1520 1520 1520 1520 1520 1520 1520 1520 1521 1521 1521 1521 1522 1522 1523 1524 1525 1526 1526 1527 1528 1528 1529 1530 1530 1532 1532 1533 1533 1534
1547 1545 1543 1541 1539 1536 1534 1531 1528 1526 1523 1521 1519 1517 1515 1514 1514 1513 1512 1512 1512 1513 1514 1515 1516 1517 1517 1517 1518 1520 1521 1521 1520 1519 1519 1519 1519 1519 1519 1519 1519 1519 1519 1520 1520 1520 1521 1522 1523 1524 1525 1525 1526 1527 1527 1528 1529 1529 1530 1531 1532 1532 1533
1547 1545 1543 1541 1539 1536 1534 1532 1529 1526 1523 1521 1518 1516 1515 1513 1512 1511 1510 1509 1510 1511 1511 1512 1514 1515 1515 1515 1517 1518 1518 1519 1518 1518 1518 1517 1518 1518 1517 1518 1518 1518 1518 1518 1518 1519 1519 1520 1521 1523 1524 1525 1526 1526 1527 1528 1528 1529 1529 1530 1531 1532 1532
1547 1545 1543 1541 1539 1536 1534 1532 1529 1527 1524 1521 1518 1516 1514 1512 1510 1509 1507 1507 1508 1509 1510 1510 1511 1512 1514 1514 1515 1516 1516 1517 1516 1516 1516 1516 1516 1516 1516 1517 1517 1516 1517 1517 1517 1517 1518 1519 1520 1521 1522 1524 1525 1526 1527 1527 1528 1528 1529 1529 1530 1531 1532
1547 1545 1543 1540 1538 1536 1534 1532 1529 1527 1524 1521 1519 1516 1514 1512 1510 1508 1507 1507 1507 1507 1508 1508 1508 1510 1512 1513 1513 1514 1514 1515 1515 1515 1515 1515 1515 1515 1515 1516 1516 1516 1516 1516 1516 1516 1517 1517 1518 1519 1520 1522 1523 1524 1525 1526 1527 1527 1528 1529 1529 1530 1531
1547 1545 1543 1540 1538 1535 1533 1531 1529 1526 1524 1522 1519 1516 1514 1512 1510 1508 1506 1505 1505 1505 1506 1507 1507 1508 1509 1511 1512 1512 1513 1513 1513 1514 1514 1514 1514 1514 1514 1515 1515 1515 1515 1515 1515 1515 1516 1516 1516 1517 1518 1520 1521 1522 1524 1525 1526 1526 1527 1528 1529 1530 1530
1547 1544 1542 1540 1537 1535 1533 1530 1528 1525 1523 1522 1520 1517 1515 1512 1510 1508 1506 1504 1503 1503 1504 1504 1505 1506 1507 1509 1510 1510 1511 1511 1512 1512 1512 1513 1513 1513 1513 1513 1514 1514 1514 1514 1514 1514 1514 1515 1515 1516 1517 1518 1519 1520 1522 1523 1524 1525 1526 1526 1527 1528 1529
1547 1544 1542 1539 1537 1534 1532 1530 1528 1525 1523 1521 1520 1518 1515 1513 1510 1509 1507 1505 1503 1502 1502 1502 1503 1504 1505 1506 1507 1508 1509 1509 1510 1510 1511 1511 1512 1512 1512 1512 1513 1513 1513 1513 1513 1513 1513 1514 1514 1515 1515 1516 1517 1519 1520 1521 1522 1523 1524 1525 1526 1527 1528
1546 1544 1542 1539 1537 1534 1532 1530 1528 1525 1523 1521 1520 1518 1516 1514 1511 1509 1507 1505 1503 1502 1501 1501 1501 1501 1502 1503 1505 1506 1507 1507 1508 1508 1509 1510 1510 1511 1511 1511 1511 1512 1512 1512 1512 1512 1512 1513 1513 1514 1514 1515 1516 1517 1518 1519 1520 1522 1523 1524 1525 1526 1527
1545 1543 1541 1539 1537 1534 1532 1530 1528 1525 1523 1521 1519 1518 1516 1514 1512 1510 1508 1506 1504 1502 1501 1499 1499 1499 1500 1501 1502 1503 1505 1505 1506 1507 1507 1508 1509 1509 1510 1510 1510 1511 1511 1511 1511 1511 1511 1512 1512 1513 1513 1514 1514 1516 1517 1518 1519 1521 1522 1523 1524 1525 1526
1545 1542 1540 1538 1536 1534 1532 1530 1527 1525 1522 1521 1519 1517 1515 1513 1512 1510 1508 1506 1504 1502 1500 1499 1498 1497 1498 1499 1499 1500 1501 1503 1504 1505 1505 1506 1507 1508 1508 1509 1509 1510 1510 1510 1510 1510 1510 1511 1512 1512 1513 1513 1514 1515 1516 1517 1519 1520 1521 1522 1523 1524 1525
1544 1541 1539 1537 1535 1533 1531 1529 1527 1524 1522 1520 1518 1516 1515 1513 1511 1510 1508 1507 1504 1501 1499 1498 1497 1496 1496 1495 1496 1497 1498 1499 1501 1503 1504 1504 1505 1506 1507 1508 1509 1509 1509 1509 1510 1509 1510 1510 1511 1512 1513 1513 1514 1514 1515 1516 1517 1519 1520 1521 1522 1523 1524
1542 1540 1538 1536 1534 1532 1530 1528 1526 1524 1522 1520 1518 1516 1515 1512 1511 1509 1508 1506 1504 1502 1500 1498 1497 1496 1494 1491 1491 1493 1495 1497 1499 1501 1502 1502 1503 1505 1506 1507 1507 1508 1508 1508 1509 1509 1509 1510 1510 1511 1512 1513 1513 1514 1514 1515 1516 1518 1519 1520 1521 1522 1523
1541 1539 1537 1535 1533 1531 1529 1527 1525 1523 1521 1519 1517 1516 1514 1512 1510 1509 1507 1506 1504 1502 1501 1499 1497 1497 1495 1491 1489 1490 1492 1494 1496 1497 1499 1500 1501 1503 1505 1506 1506 1507 1507 1508 1508 1508 1508 1509 1510 1511 1512 1512 1513 1513 1514 1515 1516 1517 1518 1519 1520 1521 1522
1541 1539 1536 1534 1532 1530 1528 1526 1524 1523 1521 1519 1517 1515 1514 1512 1510 1508 1507 1505 1503 1502 1500 1498 1497 1496 1495 1493 1490 1489 1490 1491 1493 1494 1496 1498 1499 1501 1503 1504 1505 1506 1507 1507 1507 1507 1508 1508 1509 1510 1511 1512 1512 1513 1514 1515 1516 1516 1517 1518 1519 1520 1521